Regional Weather Roundup
Issued by NWS Green Bay, WI

Home | Current Version | Previous Version | Graphics & Text | Print | Product List | Glossary Off
Versions: 1 2 3 4 5 6 7 8 9 10 11 12 13 14 15 16 17 18 19 20 21 22 23 24 25 26 27 28 29 30 31 32 33 34 35 36 37 38 39 40 41 42 43 44 45 46 47 48 49 50

000
ASUS43 KGRB 221300
RWRGRB

NORTH-CENTRAL AND NORTHEAST WISCONSIN REGIONAL WEATHER ROUNDUP
NATIONAL WEATHER SERVICE GREEN BAY WI
800 AM CDT MON MAY 22 2017

WIZ005-009-010>012-018-019-221400-
NORTH CENTRAL WISCONSIN

CITY           SKY/WX    TMP DP  RH WIND       PRES   REMARKS
IRONWOOD       CLOUDY    46  44  93 SW15      29.78S
MANITOWISH WTR NOT AVBL
ARBOR VITAE    NOT AVBL
EAGLE RIVER    NOT AVBL
LAND O LAKES   CLOUDY    45  42  88 W8        29.80S
RHINELANDER    CLOUDY    46  43  89 W12G20    29.82R
PHILLIPS       CLOUDY    43  43 100 SW7       29.81S
ANTIGO         NOT AVBL
TOMAHAWK       NOT AVBL
MERRILL        CLOUDY    45  43  94 W7        29.85S
$$

WIZ013-073-221400-
NORTHEAST WISCONSIN

CITY           SKY/WX    TMP DP  RH WIND       PRES   REMARKS
IRON MOUNTAIN  CLOUDY    48  42  80 W12G18    29.78R
MARINETTE      LGT RAIN  48  43  82 W8        29.84S
$$

WIZ017-030-035>037-045-221400-
CENTRAL WISCONSIN

CITY           SKY/WX    TMP DP  RH WIND       PRES   REMARKS
MEDFORD        NOT AVBL
WAUSAU         CLOUDY    46  42  86 W12       29.85S
MOSINEE        CLOUDY    46  45  93 W10       29.88S
MARSHFIELD     SUNNY     47  42  83 W9        29.87S
WISC RAPIDS    SUNNY     50  42  74 W12       29.91S
STEVENS POINT  NOT AVBL
WAUPACA        SUNNY     51  42  71 W14G20    29.90S
SHAWANO        CLOUDY    50  43  78 SW8       29.87R
CLINTONVILLE   CLOUDY    48  41  76 W10G17    29.88R
WAUTOMA        MOSUNNY   50  42  74 W13G20    29.92S
$$

WIZ038-039-048-051-221400-
FOX VALLEY

CITY           SKY/WX    TMP DP  RH WIND       PRES   REMARKS
NWS GREEN BAY  CLOUDY    50  44  80 W16G22    29.88R
APPLETON       PTSUNNY   50  39  66 W15G22      N/A
OSHKOSH        SUNNY     50  41  71 W14G20    29.90R
FOND DU LAC    SUNNY     51  40  65 W9        29.92S
$$

WIZ022-050-052-221400-
EAST CENTRAL WISCONSIN

CITY           SKY/WX    TMP DP  RH WIND       PRES   REMARKS
EPHRAIM        NOT AVBL
WASHINGTON ISL NOT AVBL
STURGEON BAY   LGT RAIN  48  43  82 W14       29.85R
MANITOWOC      NOT AVBL
SHEBOYGAN      SUNNY     50  43  77 W15G22    29.92R
$$

LMZ563-521-522-541>543-221400-
LAKESHORE

STATION/POSITION TIME  TEMP    WIND        PRES    VSBY  WAVE
                       AIR SEA DIR/SP/G                  HT/PER
                 (UTC) (F)     (DEG/KT/KT) (MB)    (MI)  (FT/S)
SHEBOYGAN LKSHOR 1200   49     250/ 14/ 17 1012.7R
KEWAUNEE LKSHORE 1230   49     270/ 11/ 18 1011.1R
NORTHPORT PIER   1240   47     230/  5/ 12 1009.8R
N MID LAKE BUOY  1150   42 38  210/ 14/ 17 1010.1R         3/ 5
CHAMBERS ISLAND  1240   47     210/  6/ 16 1009.8R
MENOMINEE LKSHOR 1230          240/ 13/ 18 1009.5R
$$




USA.gov is the U.S. government's official web portal to all federal, state and local government web resources and services.